Hourly Weather Rust

Today, 20 April, Tuesday

Time Temperature Precipitation Wind Pressure Humidity
00:00 +6°C° 0 mm 4 mps 749 mmHg 90%
01:00 +6°C° 0 mm 4 mps 749 mmHg 90%
02:00 +7°C° 0.1 mm 3 mps 749 mmHg 90%
03:00 +7°C° 0.1 mm 3 mps 749 mmHg 90%
04:00 +7°C° 0.1 mm 3 mps 749 mmHg 91%
05:00 +7°C° 0.1 mm 3 mps 749 mmHg 91%
06:00 +7°C° 0.1 mm 3 mps 749 mmHg 90%
07:00 +7°C° 0.1 mm 3 mps 749 mmHg 90%
08:00 +8°C° 0 mm 3 mps 749 mmHg 88%
09:00 +8°C° 0 mm 3 mps 750 mmHg 86%
10:00 +8°C° 0 mm 4 mps 750 mmHg 83%
11:00 +10°C° 0.2 mm 4 mps 749 mmHg 75%
12:00 +12°C° 0.2 mm 4 mps 749 mmHg 67%
13:00 +13°C° 0.2 mm 4 mps 749 mmHg 59%
14:00 +14°C° 0.2 mm 4 mps 749 mmHg 58%
15:00 +14°C° 0.2 mm 4 mps 748 mmHg 57%
16:00 +14°C° 0.2 mm 4 mps 748 mmHg 56%
17:00 +12°C° 0 mm 4 mps 748 mmHg 62%
18:00 +11°C° 0 mm 4 mps 749 mmHg 69%
19:00 +9°C° 0 mm 3 mps 749 mmHg 76%
20:00 +8°C° 0 mm 3 mps 749 mmHg 78%
21:00 +8°C° 0 mm 3 mps 749 mmHg 80%
22:00 +7°C° 0 mm 2 mps 749 mmHg 81%
23:00 +7°C° 0 mm 2 mps 749 mmHg 81%

Tomorrow, 21 April, Wednesday

Time Temperature Precipitation Wind Pressure Humidity
00:00 +6°C° 0 mm 2 mps 749 mmHg 80%
01:00 +6°C° 0 mm 2 mps 749 mmHg 79%
02:00 +7°C° 0 mm 1 mps 749 mmHg 79%
03:00 +7°C° 0 mm 1 mps 749 mmHg 79%
04:00 +7°C° 0 mm 1 mps 749 mmHg 79%
05:00 +8°C° 0 mm 1 mps 749 mmHg 74%
06:00 +9°C° 0 mm 1 mps 750 mmHg 70%
07:00 +9°C° 0 mm 0 mps 750 mmHg 65%
08:00 +12°C° 0 mm 1 mps 750 mmHg 59%
09:00 +14°C° 0 mm 1 mps 750 mmHg 54%
10:00 +16°C° 0 mm 1 mps 750 mmHg 48%
11:00 +17°C° 0 mm 2 mps 749 mmHg 45%
12:00 +18°C° 0 mm 2 mps 749 mmHg 42%
13:00 +19°C° 0 mm 2 mps 749 mmHg 40%
14:00 +19°C° 0 mm 2 mps 748 mmHg 41%
15:00 +19°C° 0 mm 2 mps 748 mmHg 41%
16:00 +19°C° 0 mm 2 mps 748 mmHg 42%
17:00 +17°C° 0 mm 2 mps 748 mmHg 50%
18:00 +15°C° 0 mm 2 mps 748 mmHg 58%
19:00 +13°C° 0 mm 2 mps 748 mmHg 66%
20:00 +13°C° 0.1 mm 2 mps 748 mmHg 69%
21:00 +12°C° 0.1 mm 2 mps 748 mmHg 72%
22:00 +11°C° 0.1 mm 1 mps 748 mmHg 76%
23:00 +10°C° 0 mm 1 mps 748 mmHg 77%

Day after tomorrow, 22 April, Thursday

Time Temperature Precipitation Wind Pressure Humidity
00:00 +10°C° 0 mm 1 mps 748 mmHg 78%
01:00 +9°C° 0 mm 1 mps 748 mmHg 79%
02:00 +9°C° 0 mm 1 mps 748 mmHg 79%
03:00 +9°C° 0 mm 1 mps 749 mmHg 80%
04:00 +9°C° 0 mm 1 mps 749 mmHg 80%
05:00 +10°C° 0 mm 1 mps 749 mmHg 78%
06:00 +9°C° 0 mm 2 mps 749 mmHg 76%
07:00 +10°C° 0 mm 2 mps 750 mmHg 74%
08:00 +11°C° 0 mm 3 mps 750 mmHg 71%
09:00 +12°C° 0 mm 3 mps 750 mmHg 69%
10:00 +13°C° 0 mm 4 mps 750 mmHg 66%
11:00 +12°C° 1 mm 4 mps 750 mmHg 73%
12:00 +9°C° 1 mm 5 mps 751 mmHg 79%
13:00 +8°C° 1 mm 6 mps 751 mmHg 86%
14:00 +7°C° 2.3 mm 5 mps 751 mmHg 88%
15:00 +6°C° 2.3 mm 4 mps 751 mmHg 90%
16:00 +5°C° 2.3 mm 3 mps 751 mmHg 91%
17:00 +7°C° 0.5 mm 3 mps 752 mmHg 91%
18:00 +7°C° 0.5 mm 2 mps 752 mmHg 90%
19:00 +8°C° 0.5 mm 1 mps 752 mmHg 89%
20:00 +7°C° 0 mm 2 mps 752 mmHg 85%
21:00 +7°C° 0 mm 3 mps 753 mmHg 81%
22:00 +6°C° 0 mm 4 mps 753 mmHg 78%
23:00 +6°C° 0 mm 4 mps 753 mmHg 78%

23 April, Friday

Time Temperature Precipitation Wind Pressure Humidity
00:00 +5°C° 0 mm 4 mps 753 mmHg 79%
01:00 +4°C° 0 mm 4 mps 754 mmHg 80%
02:00 +3°C° 0 mm 4 mps 754 mmHg 82%
03:00 +3°C° 0 mm 3 mps 754 mmHg 84%
04:00 +2°C° 0 mm 3 mps 755 mmHg 85%
05:00 +3°C° 0 mm 4 mps 755 mmHg 81%
06:00 +4°C° 0 mm 4 mps 755 mmHg 77%
07:00 +5°C° 0 mm 5 mps 756 mmHg 73%
08:00 +6°C° 0 mm 5 mps 756 mmHg 65%
09:00 +7°C° 0 mm 6 mps 756 mmHg 57%
10:00 +9°C° 0 mm 6 mps 756 mmHg 49%
11:00 +10°C° 0 mm 6 mps 756 mmHg 45%
12:00 +10°C° 0 mm 6 mps 756 mmHg 41%
13:00 +12°C° 0 mm 5 mps 756 mmHg 38%
14:00 +12°C° 0 mm 5 mps 756 mmHg 38%
15:00 +12°C° 0 mm 5 mps 755 mmHg 38%
16:00 +13°C° 0 mm 5 mps 755 mmHg 39%
17:00 +11°C° 0 mm 4 mps 756 mmHg 45%
18:00 +9°C° 0 mm 3 mps 756 mmHg 52%
19:00 +7°C° 0 mm 2 mps 756 mmHg 58%
20:00 +8°C° 0 mm 1 mps 757 mmHg 59%
21:00 +7°C° 0 mm 1 mps 757 mmHg 61%
22:00 +6°C° 0 mm 1 mps 757 mmHg 62%
23:00 +6°C° 0 mm 1 mps 757 mmHg 63%

24 April, Saturday

Time Temperature Precipitation Wind Pressure Humidity
00:00 +5°C° 0 mm 1 mps 757 mmHg 64%
01:00 +5°C° 0 mm 1 mps 757 mmHg 66%
02:00 +5°C° 0 mm 1 mps 757 mmHg 66%
03:00 +5°C° 0 mm 1 mps 757 mmHg 67%
04:00 +4°C° 0 mm 1 mps 757 mmHg 68%
05:00 +6°C° 0 mm 1 mps 757 mmHg 66%
06:00 +7°C° 0 mm 1 mps 757 mmHg 63%
07:00 +8°C° 0 mm 1 mps 757 mmHg 61%
08:00 +10°C° 0 mm 1 mps 757 mmHg 57%
09:00 +12°C° 0 mm 2 mps 756 mmHg 52%
10:00 +14°C° 0 mm 2 mps 756 mmHg 48%
11:00 +15°C° 0 mm 2 mps 756 mmHg 46%
12:00 +16°C° 0 mm 2 mps 755 mmHg 44%
13:00 +17°C° 0 mm 2 mps 755 mmHg 42%
14:00 +17°C° 0 mm 2 mps 754 mmHg 43%
15:00 +17°C° 0 mm 2 mps 754 mmHg 43%
16:00 +17°C° 0 mm 2 mps 754 mmHg 44%
17:00 +15°C° 0 mm 2 mps 754 mmHg 52%
18:00 +13°C° 0 mm 2 mps 754 mmHg 61%
19:00 +10°C° 0 mm 2 mps 754 mmHg 69%
20:00 +10°C° 0 mm 2 mps 754 mmHg 71%
21:00 +9°C° 0 mm 2 mps 754 mmHg 72%
22:00 +9°C° 0 mm 2 mps 755 mmHg 74%
23:00 +8°C° 0 mm 2 mps 754 mmHg 74%

25 April, Sunday

Time Temperature Precipitation Wind Pressure Humidity
00:00 +9°C° 0 mm 1 mps 754 mmHg 75%
01:00 +9°C° 0 mm 1 mps 754 mmHg 75%
02:00 +7°C° 0 mm 2 mps 754 mmHg 76%
03:00 +7°C° 0 mm 2 mps 754 mmHg 77%
04:00 +7°C° 0 mm 2 mps 754 mmHg 79%
05:00 +7°C° 0 mm 2 mps 755 mmHg 75%
06:00 +8°C° 0 mm 3 mps 755 mmHg 72%
07:00 +9°C° 0 mm 3 mps 756 mmHg 68%
08:00 +10°C° 0 mm 3 mps 756 mmHg 63%
09:00 +12°C° 0 mm 4 mps 756 mmHg 58%
10:00 +13°C° 0 mm 4 mps 756 mmHg 53%
11:00 +14°C° 0 mm 4 mps 756 mmHg 52%
12:00 +15°C° 0 mm 4 mps 756 mmHg 50%
13:00 +15°C° 0 mm 4 mps 756 mmHg 48%
14:00 +15°C° 0 mm 4 mps 756 mmHg 49%
15:00 +15°C° 0 mm 4 mps 756 mmHg 49%
16:00 +15°C° 0 mm 4 mps 756 mmHg 50%
17:00 +13°C° 0 mm 3 mps 756 mmHg 54%
18:00 +11°C° 0 mm 3 mps 756 mmHg 58%
19:00 +9°C° 0 mm 2 mps 756 mmHg 62%
20:00 +8°C° 0 mm 2 mps 756 mmHg 60%
21:00 +9°C° 0 mm 1 mps 756 mmHg 58%
22:00 +8°C° 0 mm 1 mps 756 mmHg 56%
23:00 +8°C° 0 mm 1 mps 756 mmHg 56%
Show more